TimePDT,TemperatureF,Dew PointF,Humidity,Sea Level PressureIn,VisibilityMPH,Wind Direction,Wind SpeedMPH,Gust SpeedMPH,PrecipitationIn,Events,Conditions,WindDirDegrees,DateUTC
12:15 AM,57.2,53.6,88,29.85,5.0,West,4.6,-,0.06,Rain,Rain,260,2012-10-16 07:15:00
12:35 AM,57.2,53.6,88,29.84,10.0,SSW,5.8,-,0.08,Rain,Rain,210,2012-10-16 07:35:00
12:55 AM,59.0,53.6,82,29.83,10.0,South,12.7,-,0.10,Rain,Rain,190,2012-10-16 07:55:00
1:15 AM,57.2,53.6,88,29.82,7.0,SSW,5.8,-,0.02,Rain,Rain,210,2012-10-16 08:15:00
1:35 AM,57.2,53.6,88,29.82,10.0,SW,10.4,-,0.03,Rain,Rain,220,2012-10-16 08:35:00
1:55 AM,57.2,53.6,88,29.83,5.0,SW,6.9,-,0.11,Rain,Rain,230,2012-10-16 08:55:00
2:15 AM,57.2,53.6,88,29.81,10.0,South,13.8,17.3,0.03,Rain,Heavy Rain,180,2012-10-16 09:15:00
2:35 AM,57.2,53.6,88,29.79,10.0,South,19.6,26.5,0.04,Rain,Rain,180,2012-10-16 09:35:00
2:55 AM,57.2,53.6,88,29.79,10.0,SW,12.7,17.3,0.04,,Overcast,220,2012-10-16 09:55:00
3:15 AM,59.0,53.6,82,29.77,10.0,South,16.1,20.7,N/A,,Overcast,190,2012-10-16 10:15:00
3:35 AM,59.0,53.6,82,29.77,10.0,WSW,9.2,-,N/A,Rain,Light Rain,240,2012-10-16 10:35:00
3:55 AM,60.8,53.6,77,29.76,10.0,SW,17.3,26.5,N/A,,Overcast,230,2012-10-16 10:55:00
4:35 AM,57.2,53.6,88,29.76,10.0,West,10.4,-,N/A,,Mostly Cloudy,280,2012-10-16 11:35:00
5:15 AM,57.2,53.6,88,29.76,10.0,WSW,8.1,-,N/A,Rain,Light Rain,250,2012-10-16 12:15:00
5:35 AM,57.2,53.6,88,29.77,10.0,West,9.2,-,N/A,Rain,Light Rain,270,2012-10-16 12:35:00
5:55 AM,55.4,53.6,94,29.80,10.0,West,12.7,-,0.03,Rain,Heavy Rain,280,2012-10-16 12:55:00
6:15 AM,53.6,50.0,88,29.80,10.0,West,16.1,31.1,0.01,Rain,Light Rain,270,2012-10-16 13:15:00
6:35 AM,53.6,50.0,88,29.82,10.0,WSW,13.8,-,0.02,,Overcast,240,2012-10-16 13:35:00
6:55 AM,53.6,50.0,88,29.83,10.0,WSW,13.8,-,0.02,,Mostly Cloudy,250,2012-10-16 13:55:00
7:15 AM,53.6,50.0,88,29.84,10.0,West,12.7,19.6,N/A,,Mostly Cloudy,260,2012-10-16 14:15:00
7:35 AM,53.6,48.2,82,29.87,10.0,West,21.9,27.6,N/A,,Overcast,270,2012-10-16 14:35:00
7:55 AM,51.8,44.6,76,29.88,10.0,West,19.6,33.4,N/A,,Scattered Clouds,270,2012-10-16 14:55:00
8:15 AM,51.8,44.6,76,29.89,10.0,West,18.4,26.5,N/A,,Clear,260,2012-10-16 15:15:00
8:35 AM,51.8,41.0,67,29.91,10.0,West,20.7,28.8,N/A,,Clear,280,2012-10-16 15:35:00
8:55 AM,53.6,39.2,58,29.92,10.0,West,26.5,36.8,N/A,,Clear,270,2012-10-16 15:55:00
9:15 AM,53.6,41.0,62,29.94,10.0,West,20.7,32.2,N/A,,Clear,270,2012-10-16 16:15:00
9:35 AM,53.6,39.2,58,29.96,10.0,West,15.0,28.8,N/A,,Scattered Clouds,270,2012-10-16 16:35:00
9:55 AM,53.6,41.0,62,29.98,10.0,West,20.7,26.5,N/A,,Mostly Cloudy,270,2012-10-16 16:55:00
10:15 AM,55.4,42.8,63,30.00,10.0,WNW,15.0,21.9,N/A,,Mostly Cloudy,290,2012-10-16 17:15:00
10:35 AM,50.0,35.6,58,30.01,10.0,NW,13.8,18.4,N/A,,Overcast,310,2012-10-16 17:35:00
10:55 AM,51.8,35.6,54,30.01,10.0,NW,15.0,21.9,N/A,,Mostly Cloudy,320,2012-10-16 17:55:00
11:15 AM,53.6,35.6,51,30.02,10.0,WNW,13.8,18.4,N/A,,Mostly Cloudy,290,2012-10-16 18:15:00
11:35 AM,51.8,33.8,50,30.02,10.0,West,23.0,27.6,N/A,,Scattered Clouds,280,2012-10-16 18:35:00
11:55 AM,55.4,35.6,47,30.02,10.0,West,23.0,28.8,N/A,,Clear,280,2012-10-16 18:55:00
12:15 PM,55.4,33.8,44,30.03,10.0,WNW,27.6,32.2,N/A,,Scattered Clouds,290,2012-10-16 19:15:00
12:35 PM,55.4,33.8,44,30.04,10.0,West,24.2,32.2,N/A,,Scattered Clouds,280,2012-10-16 19:35:00
1:15 PM,55.4,30.2,38,30.04,10.0,West,25.3,33.4,N/A,,Scattered Clouds,280,2012-10-16 20:15:00
1:35 PM,55.4,30.2,38,30.04,10.0,West,18.4,28.8,N/A,,Clear,270,2012-10-16 20:35:00
1:55 PM,55.4,30.2,38,30.04,10.0,West,20.7,27.6,N/A,,Clear,270,2012-10-16 20:55:00
2:15 PM,55.4,28.4,36,30.05,10.0,West,23.0,26.5,N/A,,Clear,280,2012-10-16 21:15:00
2:35 PM,57.2,28.4,33,30.05,10.0,West,18.4,25.3,N/A,,Clear,260,2012-10-16 21:35:00
2:55 PM,55.4,26.6,33,30.06,10.0,West,15.0,26.5,N/A,,Clear,280,2012-10-16 21:55:00
3:15 PM,57.2,28.4,33,30.07,10.0,West,15.0,24.2,N/A,,Scattered Clouds,270,2012-10-16 22:15:00
3:35 PM,57.2,26.6,31,30.08,10.0,WNW,18.4,24.2,N/A,,Clear,290,2012-10-16 22:35:00
3:55 PM,55.4,24.8,31,30.09,10.0,West,18.4,21.9,N/A,,Clear,280,2012-10-16 22:55:00
4:15 PM,55.4,26.6,33,30.08,10.0,NW,12.7,20.7,N/A,,Scattered Clouds,320,2012-10-16 23:15:00
4:35 PM,53.6,24.8,33,30.09,10.0,NW,15.0,19.6,N/A,,Clear,320,2012-10-16 23:35:00
4:55 PM,53.6,26.6,35,30.09,10.0,NW,11.5,19.6,N/A,,Clear,320,2012-10-16 23:55:00
5:15 PM,53.6,26.6,35,30.10,10.0,NW,13.8,17.3,N/A,,Clear,320,2012-10-17 00:15:00
5:35 PM,51.8,28.4,41,30.11,10.0,NNW,12.7,20.7,N/A,,Clear,330,2012-10-17 00:35:00
5:55 PM,50.0,30.2,47,30.12,10.0,NNW,10.4,-,N/A,,Scattered Clouds,340,2012-10-17 00:55:00
6:15 PM,50.0,32.0,50,30.14,10.0,NNW,10.4,-,N/A,,Scattered Clouds,330,2012-10-17 01:15:00
6:35 PM,48.2,32.0,54,30.14,10.0,NW,12.7,18.4,N/A,,Scattered Clouds,320,2012-10-17 01:35:00
6:55 PM,46.4,30.2,53,30.15,10.0,NW,13.8,17.3,N/A,,Clear,310,2012-10-17 01:55:00
7:15 PM,46.4,30.2,53,30.17,10.0,WNW,9.2,-,N/A,,Clear,300,2012-10-17 02:15:00
7:35 PM,44.6,30.2,57,30.17,10.0,NW,8.1,-,N/A,,Clear,310,2012-10-17 02:35:00
7:55 PM,44.6,30.2,57,30.19,10.0,NW,8.1,-,N/A,,Clear,320,2012-10-17 02:55:00
8:15 PM,44.6,30.2,57,30.19,10.0,WNW,12.7,-,N/A,,Clear,300,2012-10-17 03:15:00
8:35 PM,44.6,30.2,57,30.19,10.0,WNW,10.4,18.4,N/A,,Clear,300,2012-10-17 03:35:00
8:55 PM,42.8,30.2,61,30.20,10.0,West,9.2,-,N/A,,Clear,270,2012-10-17 03:55:00
9:15 PM,42.8,30.2,61,30.21,10.0,West,5.8,-,N/A,,Clear,270,2012-10-17 04:15:00
9:35 PM,42.8,30.2,61,30.22,10.0,South,3.5,-,N/A,,Clear,190,2012-10-17 04:35:00
9:55 PM,41.0,30.2,65,30.22,10.0,SSW,6.9,-,N/A,,Clear,200,2012-10-17 04:55:00
10:15 PM,41.0,30.2,65,30.22,10.0,SW,5.8,-,N/A,,Clear,220,2012-10-17 05:15:00
10:35 PM,41.0,30.2,65,30.22,10.0,WSW,4.6,-,N/A,,Clear,240,2012-10-17 05:35:00
10:55 PM,41.0,30.2,65,30.21,10.0,WSW,6.9,-,N/A,,Clear,250,2012-10-17 05:55:00
11:15 PM,39.2,30.2,70,30.21,10.0,WSW,6.9,-,N/A,,Clear,240,2012-10-17 06:15:00
11:35 PM,41.0,30.2,65,30.22,10.0,WSW,8.1,-,N/A,,Clear,250,2012-10-17 06:35:00
11:55 PM,37.4,30.2,75,30.22,10.0,WSW,5.8,-,N/A,,Clear,240,2012-10-17 06:55:00